Satellite: TISAT-1
Catalog number: 36799
Epoch time: 11248.75931600
Element set: 206
Inclination: 098.0952 deg
RA of node: 317.7864 deg
Eccentricity: 0.0015655
Arg of perigee: 022.1600 deg
Mean anomaly: 338.0280 deg
Mean motion: 14.80689056 rev/day
Decay rate: 7.57e-06 rev/day^2
Epoch rev: 6223
Checksum: 305
Satellite: STUDSAT
Catalog number: 36801
Epoch time: 11247.74454203
Element set: 235
Inclination: 098.1019 deg
RA of node: 316.6846 deg
Eccentricity: 0.0014086
Arg of perigee: 013.0019 deg
Mean anomaly: 347.1550 deg
Mean motion: 14.80945590 rev/day
Decay rate: 2.049e-05 rev/day^2
Epoch rev: 6207
Checksum: 275
Satellite: OOREOS
Catalog number: 37224
Epoch time: 11153.29456974
Element set: 0179
Inclination: 071.9726 deg
RA of node: 071.8135 deg
Eccentricity: 0.0020315
Arg of perigee: 307.7637 deg
Mean anomaly: 052.1684 deg
Mean motion: 14.77036357 rev/day
Decay rate: 4.92e-06 rev/day^2
Epoch rev: 02867
Checksum: 309
Satellite: FO-69
Catalog number: 37227
Epoch time: 11246.44010383
Element set: 0121
Inclination: 071.9667 deg
RA of node: 226.7145 deg
Eccentricity: 0.0016196
Arg of perigee: 141.1269 deg
Mean anomaly: 219.1061 deg
Mean motion: 14.76632638 rev/day
Decay rate: 1.73e-06 rev/day^2
Epoch rev: 02087
Checksum: 291
Satellite: NANOSALD
Catalog number: 37361
Epoch time: 11242.25215765
Element set: 0351
Inclination: 071.9735 deg
RA of node: 221.4469 deg
Eccentricity: 0.0025730
Arg of perigee: 245.3422 deg
Mean anomaly: 114.7284 deg
Mean motion: 15.22200108 rev/day
Decay rate: 1.80112e-03 rev/day^2
Epoch rev: 03331
Checksum: 248
Satellite: FO-70
Catalog number: 37380
Epoch time: 11246.46620481
Element set: 0258
Inclination: 071.9703 deg
RA of node: 226.8591 deg
Eccentricity: 0.0016523
Arg of perigee: 137.3020 deg
Mean anomaly: 222.9438 deg
Mean motion: 14.76397934 rev/day
Decay rate: 2.22e-06 rev/day^2
Epoch rev: 04241
Checksum: 291
/EX
SB KEPS @ AMSAT $ORB11248.W
Orbital Elements 11248.WEATHER
HR AMSAT ORBITAL ELEMENTS FOR WEATHER SATELLITES
FROM WA5QGD FORT WORTH,TX September 5, 2011
Send Subscribe/unsubscribe to KEPS at http://www.amsat.org/mailman/listinfo/keps
BID: ORB11248.W
TO ALL RADIO AMATEURS BT
Satellite: NOAA-10
Catalog number: 16969
Epoch time: 11247.97668736
Element set: 0631
Inclination: 098.6160 deg
RA of node: 276.6610 deg
Eccentricity: 0.0012378
Arg of perigee: 356.4620 deg
Mean anomaly: 003.6472 deg
Mean motion: 14.27474773 rev/day
Decay rate: 1.5e-07 rev/day^2
Epoch rev: 29903
Checksum: 322
Satellite: NOAA-11
Catalog number: 19531
Epoch time: 11247.82553254
Element set: 0625
Inclination: 098.7486 deg
RA of node: 333.7743 deg
Eccentricity: 0.0010723
Arg of perigee: 325.4052 deg
Mean anomaly: 034.6418 deg
Mean motion: 14.14920975 rev/day
Decay rate: -2.30e-06 rev/day^2
Epoch rev: 18401
Checksum: 287
Satellite: NOAA-12
Catalog number: 21263
Epoch time: 11247.95070371
Element set: 0132
Inclination: 098.7502 deg
RA of node: 265.6514 deg
Eccentricity: 0.0011865
Arg of perigee: 319.2274 deg
Mean anomaly: 040.8018 deg
Mean motion: 14.25735123 rev/day
Decay rate: 3.2e-07 rev/day^2
Epoch rev: 05577
Checksum: 273
Satellite: MET-3/5
Catalog number: 21655
Epoch time: 11248.81243054
Element set: 201
Inclination: 082.5619 deg
RA of node: 353.8044 deg
Eccentricity: 0.0012556
Arg of perigee: 320.2989 deg
Mean anomaly: 039.7261 deg
Mean motion: 13.17029035 rev/day
Decay rate: 5.1e-07 rev/day^2
Epoch rev: 96433
Checksum: 284
Satellite: MET-2/21
Catalog number: 22782
Epoch time: 11247.58350389
Element set: 0195
Inclination: 082.5445 deg
RA of node: 259.8856 deg
Eccentricity: 0.0021180
Arg of perigee: 233.8902 deg
Mean anomaly: 126.0290 deg
Mean motion: 13.83660443 rev/day
Decay rate: -1.1e-07 rev/day^2
Epoch rev: 90953
Checksum: 305
Satellite: OKEAN-4
Catalog number: 23317
Epoch time: 11247.91083745
Element set: 0721
Inclination: 082.5405 deg
RA of node: 298.6963 deg
Eccentricity: 0.0020765
Arg of perigee: 212.2098 deg
Mean anomaly: 147.7851 deg
Mean motion: 14.83138576 rev/day
Decay rate: 4.14e-06 rev/day^2
Epoch rev: 91236
Checksum: 312
Satellite: NOAA-14
Catalog number: 23455
Epoch time: 11247.93450126
Element set: 0624
Inclination: 098.8493 deg
RA of node: 329.7644 deg
Eccentricity: 0.0010236
Arg of perigee: 055.8686 deg
Mean anomaly: 304.3453 deg
Mean motion: 14.13829623 rev/day
Decay rate: -1.6e-07 rev/day^2
Epoch rev: 86034
Checksum: 308
Satellite: NOAA-15
Catalog number: 25338
Epoch time: 11247.79279795
Element set: 0939
Inclination: 098.6629 deg
RA of node: 232.8739 deg
Eccentricity: 0.0009955
Arg of perigee: 216.9972 deg
Mean anomaly: 143.0498 deg
Mean motion: 14.24945990 rev/day
Decay rate: 5.3e-07 rev/day^2
Epoch rev: 69206
Checksum: 374
Satellite: RESURS
Catalog number: 25394
Epoch time: 11247.98538638
Element set: 0887
Inclination: 098.3032 deg
RA of node: 246.6274 deg
Eccentricity: 0.0002069
Arg of perigee: 027.9269 deg
Mean anomaly: 332.2023 deg
Mean motion: 14.24238313 rev/day
Decay rate: -3.0e-08 rev/day^2
Epoch rev: 68366
Checksum: 309
Satellite: FENGYUN1
Catalog number: 25730
Epoch time: 11247.93451020
Element set: 0435
Inclination: 098.8220 deg
RA of node: 207.3956 deg
Eccentricity: 0.0024581
Arg of perigee: 088.9012 deg
Mean anomaly: 271.4974 deg
Mean motion: 14.08762287 rev/day
Decay rate: 8.85e-06 rev/day^2
Epoch rev: 63429
Checksum: 311
Satellite: OKEAN-0
Catalog number: 25860
Epoch time: 11247.93550290
Element set: 0429
Inclination: 097.8933 deg
RA of node: 212.2259 deg
Eccentricity: 0.0001856
Arg of perigee: 077.6524 deg
Mean anomaly: 282.4890 deg
Mean motion: 14.73824339 rev/day
Decay rate: 1.95e-06 rev/day^2
Epoch rev: 65240
Checksum: 316
Satellite: NOAA-16
Catalog number: 26536
Epoch time: 11247.75945935
Element set: 0422
Inclination: 099.1347 deg
RA of node: 279.8986 deg
Eccentricity: 0.0010806
Arg of perigee: 164.9358 deg
Mean anomaly: 195.2121 deg
Mean motion: 14.12640850 rev/day
Decay rate: -1.35e-06 rev/day^2
Epoch rev: 56459
Checksum: 333
Satellite: NOAA-17
Catalog number: 27453
Epoch time: 11247.91027742
Element set: 0410
Inclination: 098.3723 deg
RA of node: 283.9360 deg
Eccentricity: 0.0010713
Arg of perigee: 276.5714 deg
Mean anomaly: 083.4235 deg
Mean motion: 14.24308301 rev/day
Decay rate: 2.09e-06 rev/day^2
Epoch rev: 47800
Checksum: 279
Satellite: NOAA-18
Catalog number: 28654
Epoch time: 11247.91773968
Element set: 0888
Inclination: 099.0029 deg
RA of node: 199.2879 deg
Eccentricity: 0.0013565
Arg of perigee: 238.9864 deg
Mean anomaly: 120.9986 deg
Mean motion: 14.11509961 rev/day
Decay rate: 4.46e-06 rev/day^2
Epoch rev: 32417
Checksum: 370
Satellite: NOAA-19
Catalog number: 33591
Epoch time: 11247.93268814
Element set: 0079
Inclination: 098.8309 deg
RA of node: 186.7617 deg
Eccentricity: 0.0015001
Arg of perigee: 109.2849 deg
Mean anomaly: 250.9948 deg
Mean motion: 14.11198389 rev/day
Decay rate: -6.6e-07 rev/day^2
Epoch rev: 13263
Checksum: 337
/EX
SB KEPS @ AMSAT $ORB11248.M
Orbital Elements 11248.MISC
HR AMSAT ORBITAL ELEMENTS FOR MANNED AND MISCELLANEOUS SATELLITES
FROM WA5QGD FORT WORTH,TX September 5, 2011
Send Subscribe/unsubscribe to KEPS at http://www.amsat.org/mailman/listinfo/keps
BID: ORB11248.M
TO ALL RADIO AMATEURS BT
